Change the Weather History Date:

Tuesday, November 12, 2013

  Actual Average Record
Temperature  
Mean Temperature 72 °F -  
Max Temperature 92 °F 90 °F 93 °F (1998)
Min Temperature 53 °F 73 °F 53 °F (2013)
Cooling Degree Days 8    
Growing Degree Days 22 (Base 50)    
Moisture  
Dew Point 76 °F    
Average Humidity 79    
Maximum Humidity 89    
Minimum Humidity 62    
Precipitation  
Precipitation 0.00 in 0.05 in - ()
Sea Level Pressure  
Sea Level Pressure 29.84 in    
Wind  
Wind Speed 4 mph ()    
Max Wind Speed 16 mph    
Max Gust Speed -    
Visibility 8.2 miles    
Events      
Averages and records for this station are not official NWS values.
T = Trace of Precipitation, MM = Missing Value Source: Averaged Metar Reports

Daily Weather History Graph

Daily Weather History Graph

Search for Another Location

Airport or City:

Trip Planner

Search our weather history database for the weather conditions in past years. The results will help you decide how hot, cold, wet, or windy it might be!

Date:

Astronomy

Nov. 12, 2013 Rise Set
Actual Time 6:41 AM CST 6:04 PM CST
Civil Twilight 6:19 AM CST 6:27 PM CST
Nautical Twilight 5:52 AM CST 6:53 PM CST
Astronomical Twilight 5:27 AM CST 7:19 PM CST
Moon 2:42 PM CST (11/12) 2:15 AM CST (11/12)
Length of Visible Light 12h 08m
Length of Day
11h 22m
Waxing Gibbous, 76% of the Moon is Illuminated
Nov 12
Waxing Gibbous
Nov 17
Full
Nov 25
Last Quarter
Dec 2
New
Dec 9
First Quarter

Hourly Weather History & Observations

Time (CST) Temp. Heat Index Dew Point Humidity Pressure Visibility Wind Dir Wind Speed Gust Speed Precip Events Conditions
12:43 AM 80.6 °F 87.1 °F 77.0 °F 89% 29.90 in 8.0 mi North 2.3 mph - N/A   Mostly Cloudy
1:45 AM 80.6 °F 86.2 °F 75.2 °F 84% 29.88 in 8.0 mi NNW 5.8 mph - N/A   Mostly Cloudy
2:45 AM 80.6 °F 85.4 °F 73.4 °F 79% 29.86 in 8.0 mi NNW 5.8 mph - N/A   Mostly Cloudy
2:48 AM 79 °F - 75 °F 84% 29.87 in 6 mi NW 2.2 mph - -   Scattered Clouds
3:45 AM 78.8 °F - 73.4 °F 83% 29.84 in 8.0 mi West 2.3 mph - N/A   Mostly Cloudy
4:46 AM 78.8 °F - 73.4 °F 83% 29.82 in 8.0 mi NW 3.5 mph - N/A   Mostly Cloudy
5:42 AM 78.8 °F - 73.4 °F 83% 29.82 in 8.0 mi NW 3.5 mph - N/A   Mostly Cloudy
5:50 AM 78 °F - 75 °F 86% 29.83 in 6 mi WNW 2.2 mph - -   Scattered Clouds
6:45 AM 77.0 °F - 73.4 °F 89% 29.84 in 8.0 mi NW 1.2 mph - N/A   Clear
7:52 AM 80.6 °F 86.2 °F 75.2 °F 84% 29.86 in 8.0 mi Calm Calm - N/A   Clear
8:43 AM 82.4 °F 89.5 °F 75.2 °F 79% 29.88 in 8.0 mi Calm Calm - N/A   Scattered Clouds
8:50 AM 85 °F - 76 °F 69% 29.89 in 12 mi West 2.2 mph - -   Scattered Clouds
9:42 AM 84.2 °F 96.1 °F 78.8 °F 84% 29.90 in 8.0 mi West 8.1 mph - N/A   Mostly Cloudy
10:45 AM 86.0 °F 99.3 °F 78.8 °F 79% 29.88 in 8.0 mi West 8.1 mph - N/A   Mostly Cloudy
11:45 AM 86.0 °F 96.9 °F 77.0 °F 74% 29.88 in 8.0 mi West 9.2 mph - N/A   Mostly Cloudy
11:50 AM 89 °F - 78 °F 62% 29.87 in 12 mi WSW 8.9 mph - -   Scattered Clouds
12:45 PM 86.0 °F 96.9 °F 77.0 °F 74% 29.82 in 8.0 mi WSW 12.7 mph - N/A   Mostly Cloudy
1:45 PM 86.0 °F 96.9 °F 77.0 °F 74% 29.79 in 8.0 mi West 16.1 mph - N/A   Mostly Cloudy
2:48 PM 86.0 °F 96.9 °F 77.0 °F 74% 29.79 in 8.0 mi West 8.1 mph - N/A   Scattered Clouds
2:50 PM 89 °F - 78 °F 63% 29.77 in 12 mi WSW 8.9 mph - -   Scattered Clouds
3:45 PM 86.0 °F 96.9 °F 77.0 °F 74% 29.76 in 8.0 mi WSW 11.5 mph - N/A   Scattered Clouds
4:43 PM 84.2 °F 94.1 °F 77.0 °F 79% 29.77 in 8.0 mi West 9.2 mph - N/A   Mostly Cloudy
5:45 PM 84.2 °F 96.1 °F 78.8 °F 84% 29.77 in 8.0 mi Calm Calm - N/A   Mostly Cloudy
5:50 PM 86 °F - 80 °F 77% 29.79 in 12 mi North 2.2 mph - -   Scattered Clouds
6:45 PM 84.2 °F 94.1 °F 77.0 °F 79% 29.80 in 8.0 mi NNW 5.8 mph - N/A   Mostly Cloudy
7:45 PM 82.4 °F 87.2 °F 71.6 °F 70% 29.81 in 8.0 mi Calm Calm - N/A   Mostly Cloudy
8:43 PM 78.8 °F - 71.6 °F 78% 29.82 in 8.0 mi ENE 4.6 mph - N/A   Scattered Clouds
8:50 PM 81 °F - 73 °F 71% 29.85 in 6 mi NNE 4.5 mph - -   Scattered Clouds
9:43 PM 78.8 °F - 73.4 °F 83% 29.86 in 8.0 mi ENE 3.5 mph - N/A   Mostly Cloudy
10:45 PM 78.8 °F - 73.4 °F 83% 29.85 in 8.0 mi Calm Calm - N/A   Mostly Cloudy
11:45 PM 78.8 °F - 73.4 °F 83% 29.85 in 8.0 mi Calm Calm - N/A   Mostly Cloudy
11:50 PM 78 °F - 75 °F 87% 29.85 in 6 mi North 2.2 mph - -   Scattered Clouds